TimeCST,TemperatureF,Dew PointF,Humidity,Sea Level PressureIn,VisibilityMPH,Wind Direction,Wind SpeedMPH,Gust SpeedMPH,PrecipitationIn,Events,Conditions,WindDirDegrees,DateUTC
12:42 AM,26.6,23.0,86,29.95,1.2,ENE,8.1,20.7,0.06,Snow,Light Snow,60,2013-02-22 06:42:00
12:51 AM,26.6,23.0,86,29.95,1.5,ENE,10.4,20.7,0.06,Snow,Light Snow,70,2013-02-22 06:51:00
12:53 AM,26.1,23.0,88,29.99,1.5,East,10.4,20.7,0.06,Snow,Light Snow,80,2013-02-22 06:53:00
1:17 AM,26.6,23.0,86,29.94,1.0,ENE,13.8,21.9,0.01,Snow,Light Snow,70,2013-02-22 07:17:00
1:31 AM,26.6,21.2,80,29.94,1.2,ENE,9.2,17.3,0.01,Snow,Light Snow,70,2013-02-22 07:31:00
1:40 AM,26.6,21.2,80,29.94,1.0,ENE,6.9,16.1,0.02,Snow,Light Snow,60,2013-02-22 07:40:00
1:53 AM,26.1,21.9,84,29.96,1.2,ENE,8.1,18.4,0.02,Snow,Light Snow,60,2013-02-22 07:53:00
2:18 AM,24.8,21.2,86,29.92,0.8,ENE,9.2,-,0.01,Snow,Light Snow,70,2013-02-22 08:18:00
2:22 AM,24.8,21.2,86,29.92,1.0,ENE,6.9,-,0.01,Snow,Light Snow,70,2013-02-22 08:22:00
2:36 AM,24.8,21.2,86,29.91,0.5,ENE,8.1,-,0.02,Fog-Snow,Snow,60,2013-02-22 08:36:00
2:44 AM,24.8,21.2,86,29.91,1.2,ENE,9.2,-,0.02,Snow,Light Snow,70,2013-02-22 08:44:00
2:53 AM,25.0,21.9,88,29.94,1.5,East,9.2,-,0.03,Snow,Light Snow,80,2013-02-22 08:53:00
3:03 AM,24.8,21.2,86,29.90,0.8,ENE,11.5,16.1,0.00,Snow,Light Snow,70,2013-02-22 09:03:00
3:11 AM,24.8,21.2,86,29.89,0.5,ENE,6.9,17.3,0.01,Fog-Snow,Snow,60,2013-02-22 09:11:00
3:23 AM,24.8,21.2,86,29.89,0.5,ENE,8.1,-,0.02,Fog-Snow,Snow,60,2013-02-22 09:23:00
3:37 AM,24.8,21.2,86,29.88,1.0,NE,9.2,-,0.03,Snow,Light Snow,50,2013-02-22 09:37:00
3:40 AM,24.8,21.2,86,29.88,1.2,ENE,10.4,16.1,0.03,Snow,Light Snow,60,2013-02-22 09:40:00
3:53 AM,25.0,21.9,88,29.91,2.0,ENE,8.1,-,0.03,Snow,Light Snow,60,2013-02-22 09:53:00
4:04 AM,24.8,21.2,86,29.86,2.5,ENE,9.2,17.3,0.00,Snow,Light Snow,60,2013-02-22 10:04:00
4:20 AM,24.8,21.2,86,29.86,2.5,ENE,8.1,-,0.00,Snow,Light Snow,70,2013-02-22 10:20:00
4:25 AM,24.8,21.2,86,29.86,3.0,ENE,8.1,-,0.00,Snow,Light Snow,70,2013-02-22 10:25:00
4:53 AM,25.0,21.0,85,29.89,9.0,ENE,8.1,-,0.00,,Overcast,70,2013-02-22 10:53:00
5:09 AM,26.6,21.2,80,29.85,10.0,ENE,8.1,-,N/A,,Overcast,70,2013-02-22 11:09:00
5:53 AM,26.1,21.0,81,29.88,9.0,ENE,6.9,-,N/A,,Overcast,60,2013-02-22 11:53:00
6:08 AM,24.8,21.2,86,29.84,8.0,NE,4.6,-,N/A,,Overcast,50,2013-02-22 12:08:00
6:53 AM,25.0,21.9,88,29.86,4.0,NE,4.6,-,N/A,,Overcast,50,2013-02-22 12:53:00
7:15 AM,24.8,23.0,93,29.83,2.0,NE,4.6,-,N/A,,Overcast,50,2013-02-22 13:15:00
7:27 AM,24.8,23.0,93,29.83,1.8,ENE,3.5,-,N/A,,Overcast,60,2013-02-22 13:27:00
7:53 AM,25.0,23.0,92,29.86,1.8,NE,3.5,-,N/A,,Overcast,50,2013-02-22 13:53:00
8:51 AM,26.6,24.8,93,29.83,1.2,NE,4.6,-,0.01,Snow,Light Snow,50,2013-02-22 14:51:00
8:53 AM,26.1,24.1,92,29.86,1.2,Variable,4.6,-,0.01,Snow,Light Snow,0,2013-02-22 14:53:00
9:11 AM,26.6,24.8,93,29.83,1.2,NE,3.5,-,0.00,Snow,Light Snow,40,2013-02-22 15:11:00
9:38 AM,26.6,24.8,93,29.83,1.0,NE,3.5,-,0.00,Snow,Light Snow,40,2013-02-22 15:38:00
9:42 AM,26.6,24.8,93,29.83,0.8,Calm,Calm,-,0.00,Snow,Light Snow,0,2013-02-22 15:42:00
9:49 AM,26.6,24.8,93,29.83,0.8,NE,3.5,-,0.01,Snow,Light Snow,40,2013-02-22 15:49:00
9:53 AM,27.0,24.1,89,29.86,0.8,NE,3.5,-,0.01,Snow,Light Snow,40,2013-02-22 15:53:00
10:18 AM,26.6,24.8,93,29.83,1.0,NE,3.5,-,0.00,Snow,Light Snow,40,2013-02-22 16:18:00
10:36 AM,28.4,24.8,86,29.83,1.2,NE,3.5,-,0.00,Snow,Light Snow,40,2013-02-22 16:36:00
10:51 AM,28.4,24.8,86,29.83,2.0,NE,3.5,-,0.00,Snow,Light Snow,40,2013-02-22 16:51:00
10:52 AM,28.0,24.1,85,29.86,2.0,NE,3.5,-,0.00,Snow,Light Snow,50,2013-02-22 16:52:00
10:59 AM,28.4,24.8,86,29.83,2.5,NE,4.6,-,0.00,Snow,Light Snow,50,2013-02-22 16:59:00
11:30 AM,28.4,24.8,86,29.81,3.0,ENE,3.5,-,0.00,Snow,Light Snow,60,2013-02-22 17:30:00
11:40 AM,28.4,24.8,86,29.80,2.0,NE,4.6,-,0.00,Snow,Light Snow,50,2013-02-22 17:40:00
11:53 AM,30.0,25.0,82,29.83,1.5,Variable,4.6,-,0.00,Snow,Light Snow,0,2013-02-22 17:53:00
12:12 PM,30.2,24.8,80,29.81,2.5,Calm,Calm,-,0.00,Snow,Light Snow,0,2013-02-22 18:12:00
12:41 PM,30.2,26.6,86,29.82,1.2,Calm,Calm,-,0.00,Snow,Light Snow,0,2013-02-22 18:41:00
12:53 PM,30.0,26.1,85,29.84,1.5,Calm,Calm,-,0.01,Snow,Light Snow,0,2013-02-22 18:53:00
1:46 PM,30.2,26.6,86,29.82,2.0,Calm,Calm,-,0.00,Snow,Light Snow,0,2013-02-22 19:46:00
1:53 PM,30.0,26.1,85,29.84,1.8,Calm,Calm,-,0.00,Snow,Light Snow,0,2013-02-22 19:53:00
2:00 PM,30.2,26.6,86,29.82,1.8,Calm,Calm,-,0.00,Snow,Light Snow,0,2013-02-22 20:00:00
2:07 PM,30.2,26.6,86,29.82,2.5,SSW,3.5,-,0.00,Snow,Light Snow,210,2013-02-22 20:07:00
2:19 PM,30.2,26.6,86,29.82,4.0,SSW,3.5,-,0.00,Snow,Light Snow,210,2013-02-22 20:19:00
2:53 PM,30.9,24.1,76,29.84,9.0,NW,6.9,-,0.00,,Overcast,320,2013-02-22 20:53:00
3:13 PM,30.2,23.0,75,29.81,10.0,WNW,5.8,-,N/A,,Overcast,290,2013-02-22 21:13:00
3:29 PM,30.2,23.0,75,29.81,10.0,West,3.5,-,N/A,,Overcast,280,2013-02-22 21:29:00
3:53 PM,30.9,23.0,72,29.85,10.0,WNW,5.8,-,N/A,,Overcast,290,2013-02-22 21:53:00
4:53 PM,30.0,21.9,72,29.87,10.0,West,5.8,-,N/A,,Overcast,270,2013-02-22 22:53:00
5:53 PM,30.0,21.0,69,29.87,10.0,Calm,Calm,-,N/A,,Overcast,0,2013-02-22 23:53:00
6:35 PM,30.2,21.2,69,29.85,10.0,West,3.5,-,N/A,,Overcast,270,2013-02-23 00:35:00
6:53 PM,30.0,21.0,69,29.89,10.0,West,4.6,-,N/A,,Overcast,260,2013-02-23 00:53:00
7:53 PM,28.9,21.0,72,29.91,10.0,WSW,4.6,-,N/A,,Overcast,250,2013-02-23 01:53:00
8:53 PM,28.9,19.9,69,29.91,10.0,West,5.8,-,N/A,,Overcast,280,2013-02-23 02:53:00
9:53 PM,28.0,21.0,75,29.91,10.0,Variable,5.8,-,N/A,,Overcast,0,2013-02-23 03:53:00
10:53 PM,27.0,19.9,75,29.91,10.0,WSW,6.9,-,N/A,,Overcast,240,2013-02-23 04:53:00
11:53 PM,26.1,19.9,78,29.91,10.0,WSW,4.6,-,N/A,,Overcast,250,2013-02-23 05:53:00